Weather History for Cheyenne, WY

Change the Weather History Date:

Wednesday, November 16, 2011

  Actual Average Record
Temperature  
Mean Temperature 21 °F 35 °F  
Max Temperature 30 °F 46 °F 70 °F (1999)
Min Temperature 11 °F 24 °F -20 °F (1875)
Degree Days  
Heating Degree Days 44 30  
Month to date heating degree days 511 427  
Since 1 July heating degree days 1262 1286  
Cooling Degree Days 0 0  
Month to date cooling degree days 0 0  
Year to date cooling degree days 431 348  
Moisture  
Dew Point 2 °F    
Average Humidity 48    
Maximum Humidity 80    
Minimum Humidity 16    
Precipitation  
Precipitation T in 0.02 in 0.22 in (1926)
Month to date precipitation 0.69 0.32  
Year to date precipitation 18.69 15.18  
Snow  
Snow T in 0.20 in 2.50 in (1958)
Month to date snowfall 9.8 3.9  
Since 1 July snowfall 25.1 10.2  
Snow Depth 0.00 in    
Sea Level Pressure  
Sea Level Pressure 30.28 in    
Wind  
Wind Speed 12 mph (West)    
Max Wind Speed 29 mph    
Max Gust Speed 36 mph    
Visibility 10 miles    
Events      
T = Trace of Precipitation, MM = Missing Value Source: NWS Daily Summary

Daily Weather History Graph

Daily Weather History Graph

Search for Another Location

Airport:

Trip Planner

Search our weather history database for the weather conditions in past years. The results will help you decide how hot, cold, wet, or windy it might be!

Date:

Astronomy

Nov. 16, 2011 Rise Set
Actual Time 6:48 AM MST 4:39 PM MST
Civil Twilight 6:18 AM MST 5:09 PM MST
Nautical Twilight 5:45 AM MST 5:42 PM MST
Astronomical Twilight 5:12 AM MST 6:15 PM MST
Moon 9:56 PM MST 11:25 AM MST
Length of Visible Light 10h 50m
Length of Day
9h 51m
Waning Gibbous, 69% of the Moon is Illuminated
Nov 16
Waning Gibbous
Nov 18
Last Quarter
Nov 24
New
Dec 2
First Quarter
Dec 10
Full

Hourly Weather History & Observations

Time (MST) Temp. Windchill Dew Point Humidity Pressure Visibility Wind Dir Wind Speed Gust Speed Precip Events Conditions
12:53 AM 14.0 °F 8.2 °F 8.1 °F 77% 30.12 in 10.0 mi North 3.5 mph - N/A   Clear
1:53 AM 12.9 °F - 7.0 °F 77% 30.11 in 10.0 mi Calm Calm - N/A   Clear
2:53 AM 14.0 °F 6.5 °F 7.0 °F 74% 30.11 in 10.0 mi SSE 4.6 mph - N/A   Clear
3:53 AM 12.0 °F 0.5 °F 6.1 °F 77% 30.13 in 10.0 mi South 8.1 mph - N/A   Clear
4:53 AM 16.0 °F 2.9 °F 9.0 °F 74% 30.14 in 10.0 mi SW 11.5 mph - N/A   Clear
5:53 AM 17.1 °F 6.6 °F 9.0 °F 71% 30.17 in 10.0 mi SW 8.1 mph - N/A   Partly Cloudy
6:53 AM 24.1 °F 9.4 °F 12.0 °F 60% 30.25 in 10.0 mi NW 20.7 mph 34.5 mph N/A   Scattered Clouds
7:53 AM 21.9 °F 7.8 °F 12.0 °F 66% 30.32 in 10.0 mi NNW 17.3 mph 26.5 mph N/A   Clear
8:53 AM 23.0 °F 8.3 °F 10.4 °F 59% 30.19 in 10.0 mi NW 19.6 mph 29.9 mph N/A   Scattered Clouds
9:53 AM 23.0 °F 9.2 °F 5.0 °F 46% 30.39 in 10.0 mi NW 17.3 mph 28.8 mph 0.00 in   Partly Cloudy
10:53 AM 24.1 °F 10.1 °F 1.0 °F 37% 30.40 in 10.0 mi NW 18.4 mph 32.2 mph N/A   Partly Cloudy
11:53 AM 26.1 °F 14.5 °F -2.9 °F 28% 30.38 in 10.0 mi WNW 13.8 mph 31.1 mph N/A   Clear
12:53 PM 27.0 °F 13.2 °F -9.0 °F 21% 30.36 in 10.0 mi NW 20.7 mph 35.7 mph N/A   Clear
1:53 PM 28.9 °F 15.8 °F -11.9 °F 17% 30.35 in 10.0 mi NW 20.7 mph 31.1 mph N/A   Clear
2:53 PM 30.0 °F 18.7 °F -11.9 °F 16% 30.33 in 10.0 mi NW 16.1 mph 26.5 mph N/A   Clear
3:53 PM 30.0 °F 19.5 °F -8.0 °F 19% 30.34 in 10.0 mi NNW 13.8 mph 20.7 mph N/A   Clear
4:53 PM 26.6 °F 19.1 °F -5.8 °F 24% 30.17 in 10.0 mi WNW 6.9 mph - N/A   Clear
5:53 PM 21.9 °F 13.4 °F -4.0 °F 32% 30.37 in 10.0 mi SW 6.9 mph - N/A   Clear
6:53 PM 24.1 °F 12.5 °F 1.0 °F 37% 30.35 in 10.0 mi SW 12.7 mph - N/A   Clear
7:53 PM 21.9 °F 9.8 °F 1.0 °F 40% 30.37 in 10.0 mi SW 12.7 mph - N/A   Clear
8:53 PM 23.0 °F 11.1 °F 1.9 °F 40% 30.36 in 10.0 mi WSW 12.7 mph - N/A   Clear
9:53 PM 21.9 °F 11.0 °F 3.0 °F 44% 30.35 in 10.0 mi SW 10.4 mph - N/A   Clear
10:53 PM 23.0 °F 12.4 °F 3.0 °F 42% 30.32 in 10.0 mi SW 10.4 mph - N/A   Clear
11:53 PM 23.0 °F 12.4 °F 3.9 °F 44% 30.27 in 10.0 mi WSW 10.4 mph - N/A   Clear